sat.trackr.live / text

‹ back to catalog

2024-205P

NORAD 61907 · 2024-205P

PAYLOAD ACTIVE UNKNOWN

§ Identity

Operator
Country
PRC
Launch date
2024-11-11
Launch site
JSC
Launch vehicle
Mass (kg)
RCS (m²)

External: N2YO · Heavens-Above · Gunter

§ Orbital elements

Epoch: 2026-09-22T23:54:10.156896Z

Period
94.87 min
Inclination
97.4045°
Eccentricity
0.0013254
Mean motion
15.17823715 rev/d
Perigee alt
503.3 km
Apogee alt
521.6 km
Semi-major
6,890.6 km
B*
1.4958e-4
RAAN
336.3392°
Arg perigee
80.0667°
Mean anomaly
280.2062°
Rev number
10,316

§ Raw data

2024-205P1 61907U 24205P   26265.99595089  .00002965  00000+0  14958-3 0  99922 61907  97.4045 336.3392 0013254  80.0667 280.2062 15.17823715103166

JSON: /api/v1/satellites/61907 · /tle

For live sub-satellite position, see the globe view (requires WebGL).

§ Visibility from observer

Set your observer location to see the next 7 days of passes ≥ 10°. The values pass through the URL so the page stays shareable.

No JS? Fill the form by hand. The geolocation button needs JavaScript.